Location: Kelshall
(52.0000°N, 0.0500°W)
Time: 00:32:36
(UTC+00:00)

Meteor 1-15 Rocket - Pass Details

Date: 23 January 2021
Orbit: 840 x 907 km, 81.2° (Epoch: 03 March)

Event Time Altitude Azimuth Distance (km) Brightness Sun altitude
Exits shadow 03:55:41 22° 17° (NNE) 1,821 6.1 -36.0°
Drops below altitude 10° 03:57:34 10° 15° (NNE) 2,527 6.9 -35.7°
Sets 04:00:02 0° 14° (NNE) 3,479 7.7 -35.3°
